FIN7A EYVI-EFHK

Flight info

Callsign FIN7A
Flight time N/A
Altitude 35000
Route ATMEZ1A/01 ATMEZ DCT TAGOL DCT LISGO L732 VALGA/N0447F360 DCT GONOS Q77 IBUZU Q92 INTOR
Aircraft A321/M-SDE3FGHIRWY/LB1

Departure

Time N/A
Airport Vilnius International Airport (EYVI)

Arrival

Time 2026-04-20 18:26
Airport Helsinki Vantaa Airport (EFHK)
Time Latitude Longitude Altitude Speed Heading
2026-04-20 18:04 58.85548 25.60475 32191 ft 430 kts 358°
2026-04-20 18:05 58.91385 25.58255 30742 ft 436 kts 351°
2026-04-20 18:05 58.94204 25.56187 30099 ft 441 kts 343°
2026-04-20 18:05 58.96941 25.53396 29505 ft 442 kts 338°
2026-04-20 18:06 58.99572 25.50435 28930 ft 437 kts 339°
2026-04-20 18:06 59.02259 25.47949 28399 ft 424 kts 346°
2026-04-20 18:06 59.05005 25.46303 27895 ft 410 kts 355°
2026-04-20 18:06 59.07794 25.45353 27400 ft 400 kts 359°
2026-04-20 18:07 59.10451 25.44615 26921 ft 394 kts 360°
2026-04-20 18:07 59.13120 25.43918 26448 ft 389 kts
2026-04-20 18:07 59.15785 25.43232 26021 ft 383 kts 360°
2026-04-20 18:07 59.18417 25.42556 25633 ft 381 kts 360°
2026-04-20 18:08 59.21036 25.41882 25248 ft 379 kts 360°
2026-04-20 18:08 59.23614 25.41215 24869 ft 377 kts 360°
2026-04-20 18:08 59.26207 25.40542 24472 ft 375 kts 360°
2026-04-20 18:08 59.28779 25.39871 24027 ft 372 kts 359°
2026-04-20 18:09 59.31318 25.39209 23567 ft 369 kts 359°
2026-04-20 18:09 59.33847 25.38549 23100 ft 367 kts 359°
2026-04-20 18:09 59.36340 25.37897 22634 ft 364 kts 359°
2026-04-20 18:09 59.38851 25.37238 22173 ft 361 kts 359°
2026-04-20 18:10 59.41308 25.36594 21720 ft 358 kts 359°
2026-04-20 18:10 59.43771 25.35931 21261 ft 356 kts 358°
2026-04-20 18:10 59.46175 25.35058 20786 ft 356 kts 355°
2026-04-20 18:10 59.48599 25.34011 20304 ft 354 kts 353°
2026-04-20 18:11 59.50982 25.32951 19849 ft 352 kts 353°
2026-04-20 18:11 59.53356 25.31890 19384 ft 350 kts 353°
2026-04-20 18:11 59.55690 25.30845 18927 ft 347 kts 352°
2026-04-20 18:11 59.58047 25.29792 18477 ft 345 kts 352°
2026-04-20 18:12 59.60364 25.28753 18025 ft 343 kts 352°
2026-04-20 18:12 59.62693 25.27709 17561 ft 341 kts 352°
2026-04-20 18:12 59.64979 25.26685 17112 ft 340 kts 352°
2026-04-20 18:12 59.67271 25.25656 16660 ft 338 kts 352°
2026-04-20 18:13 59.69553 25.24632 16201 ft 336 kts 352°
2026-04-20 18:13 59.71827 25.23609 15750 ft 334 kts 352°
2026-04-20 18:13 59.74057 25.22604 15309 ft 332 kts 352°
2026-04-20 18:13 59.76290 25.21597 14864 ft 331 kts 352°
2026-04-20 18:14 59.78525 25.20589 14420 ft 329 kts 352°
2026-04-20 18:14 59.80743 25.19610 13967 ft 326 kts 355°
2026-04-20 18:14 59.82962 25.19468 13500 ft 316 kts 11°
2026-04-20 18:14 59.85055 25.20556 13140 ft 306 kts 24°
2026-04-20 18:15 59.86971 25.22154 12978 ft 295 kts 26°
2026-04-20 18:15 59.88804 25.23718 12850 ft 283 kts 24°
2026-04-20 18:15 59.90705 25.24472 12681 ft 280 kts
2026-04-20 18:15 59.92627 25.23841 12290 ft 287 kts 348°
2026-04-20 18:16 59.94538 25.22636 11891 ft 286 kts 347°
2026-04-20 18:16 59.96401 25.21423 11512 ft 285 kts 347°
2026-04-20 18:16 59.98286 25.20201 11138 ft 283 kts 347°
2026-04-20 18:16 60.00149 25.19002 10766 ft 282 kts 347°
2026-04-20 18:17 60.02011 25.17808 10392 ft 280 kts 347°
2026-04-20 18:17 60.03847 25.16633 10023 ft 278 kts 347°
2026-04-20 18:17 60.05693 25.15455 9539 ft 280 kts 347°
2026-04-20 18:17 60.07547 25.14275 9084 ft 282 kts 347°
2026-04-20 18:18 60.09370 25.13112 8616 ft 276 kts 347°
2026-04-20 18:18 60.11197 25.11944 8254 ft 271 kts 347°
2026-04-20 18:18 60.12948 25.10794 8070 ft 265 kts 343°
2026-04-20 18:18 60.14497 25.08711 7787 ft 275 kts 316°
2026-04-20 18:19 60.15489 25.05415 7505 ft 282 kts 300°
2026-04-20 18:19 60.16321 25.01849 7229 ft 281 kts 300°
2026-04-20 18:19 60.17146 24.98303 6864 ft 280 kts 300°
2026-04-20 18:19 60.17963 24.94741 6572 ft 278 kts 295°
2026-04-20 18:20 60.18196 24.90891 6193 ft 287 kts 262°
2026-04-20 18:20 60.17345 24.87287 5856 ft 289 kts 230°
2026-04-20 18:20 60.15976 24.84429 5513 ft 282 kts 224°
2026-04-20 18:20 60.14691 24.81576 5186 ft 275 kts 242°
2026-04-20 18:21 60.14227 24.78028 4857 ft 261 kts 279°
2026-04-20 18:21 60.14846 24.74824 4609 ft 242 kts 317°
2026-04-20 18:21 60.16185 24.72967 4382 ft 229 kts 338°
2026-04-20 18:21 60.17535 24.71330 4083 ft 228 kts 329°
2026-04-20 18:22 60.18793 24.69490 3770 ft 223 kts 337°
2026-04-20 18:22 60.20264 24.68875 3469 ft 212 kts 11°
2026-04-20 18:22 60.21603 24.69900 3259 ft 206 kts 33°
2026-04-20 18:22 60.22691 24.71657 3070 ft 202 kts 42°
2026-04-20 18:23 60.23678 24.73600 2894 ft 197 kts 45°
2026-04-20 18:23 60.24609 24.75599 2642 ft 194 kts 46°
2026-04-20 18:23 60.25488 24.77593 2422 ft 185 kts 48°
2026-04-20 18:23 60.26284 24.79470 2223 ft 173 kts 47°
2026-04-20 18:24 60.27057 24.81178 1894 ft 159 kts 45°
2026-04-20 18:24 60.27784 24.82737 1581 ft 151 kts 46°
2026-04-20 18:24 60.28486 24.84304 1222 ft 147 kts 44°
2026-04-20 18:24 60.29175 24.85701 978 ft 138 kts 45°
2026-04-20 18:25 60.29807 24.87102 710 ft 135 kts 45°
2026-04-20 18:25 60.30437 24.88484 458 ft 134 kts 46°
2026-04-20 18:25 60.31058 24.89854 282 ft 133 kts 45°
2026-04-20 18:25 60.31668 24.91206 165 ft 124 kts 45°
2026-04-20 18:26 60.32161 24.92284 182 ft 84 kts 49°
2026-04-20 18:26 60.32414 24.92936 188 ft 40 kts 65°
2026-04-20 18:26 60.32474 24.93380 193 ft 25 kts 77°
2026-04-20 18:26 60.32493 24.93544 193 ft 4 kts 77°
2026-04-20 18:27 60.32503 24.93629 193 ft 10 kts 77°
2026-04-20 18:27 60.32525 24.93835 194 ft 18 kts 76°
2026-04-20 18:27 60.32596 24.94046 194 ft 18 kts 47°
2026-04-20 18:27 60.32687 24.94241 194 ft 18 kts 47°
2026-04-20 18:28 60.32781 24.94450 195 ft 23 kts 48°
2026-04-20 18:28 60.32890 24.94688 198 ft 22 kts 49°
2026-04-20 18:28 60.32908 24.94882 200 ft 13 kts 138°
2026-04-20 18:28 60.32798 24.94972 198 ft 23 kts 161°
2026-04-20 18:29 60.32615 24.95092 193 ft 28 kts 162°
2026-04-20 18:29 60.32431 24.95212 193 ft 27 kts 162°
2026-04-20 18:29 60.32277 24.95380 192 ft 24 kts 137°
2026-04-20 18:29 60.32178 24.95562 190 ft 9 kts 137°
2026-04-20 18:30 60.32165 24.95586 190 ft 2 kts 137°
2026-04-20 18:30 60.32109 24.95689 187 ft 19 kts 137°
2026-04-20 18:30 60.31982 24.95925 181 ft 24 kts 136°
2026-04-20 18:30 60.31881 24.96109 181 ft 14 kts 143°
2026-04-20 18:31 60.31817 24.96196 181 ft 8 kts 138°
2026-04-20 18:31 60.31789 24.96249 182 ft 2 kts 138°
2026-04-20 18:31 60.31781 24.96263 183 ft 0 kts 137°